AirNav   Phillips 66 Aviation Fuel
 
 1076 users online  

0L9 Echo Bay Airport
Overton, Nevada, USA

GOING TO OVERTON?


FAA INFORMATION EFFECTIVE 29 MARCH 2018

Location

FAA Identifier: 0L9
Lat/Long: 36-18-39.7000N / 114-27-50.0000W
36-18.661667N / 114-27.833333W
36.3110278 / -114.4638889
(estimated)
Elevation: 1535 ft. / 467.9 m (surveyed)
Variation: 14E (1985)
From city: 14 miles S of OVERTON, NV
Time zone: UTC -7 (UTC -8 during Standard Time)
Zip code: 89040

Airport Operations

Airport use: Open to the public
Control tower: no
ARTCC: LOS ANGELES CENTER
FSS: RENO FLIGHT SERVICE STATION
NOTAMs facility: RNO (NOTAM-D service available)
Attendance: ON CALL
MONITOR UNICOM 122.8 FOR TAXI SVC TO RESORT AREA.
Wind indicator: yes
Segmented circle: yes

Airport Communications

CTAF/UNICOM: 122.8

Nearby radio navigation aids

VOR radial/distance  VOR name  Freq  Var
BLDr031/27.1BOULDER CITY VORTAC116.7015E
MMMr182/28.9MORMON MESA VORTAC114.3016E
LASr053/36.4LAS VEGAS VORTAC116.9015E

Airport Services

Parking: tiedowns
Airframe service: NONE
Powerplant service: NONE
Bottled oxygen: NONE
Bulk oxygen: NONE

Runway Information

Runway 6/24

Dimensions: 3400 x 50 ft. / 1036 x 15 m
Surface: asphalt, in good condition
RWY ENDS LIPS & EDGES EXCEED 6 IN DROP OFFS. ABRUPT PAVEMENT EDGE LIPS EXCEED 8 IN ON BOTH SIDES OF THE RWY.
Weight bearing capacity: 
Single wheel: 12.5
RUNWAY 6  RUNWAY 24
Latitude: 36-18.607492N36-18.717037N
Longitude: 114-28.173280W114-27.494103W
Gradient: 1.3%1.3%
Traffic pattern: leftright
Runway heading: 065 magnetic, 079 true245 magnetic, 259 true
Markings: basic, in fair conditionbasic, in fair condition
Runway end identifier lights: nono
Obstructions: 4 ft. fence, 315 ft. from runway, 28:1 slope to clear
3-4 FT BRUSH AND VEGETATION ON RWY ENDS.
4 ft. fence, 315 ft. from runway, 28:1 slope to clear
3-4 FT BRUSH AND VEGETATION ON RWY ENDS.

Airport Ownership and Management from official FAA records

Ownership: Publicly-owned
Owner: LAKE MEAD NATL REC AREA
601 NEVADA HWY
BOULDER CITY, NV 89005
Phone (702) 293-8971
Manager: SCOTT TAYLOR
601 NEVADA HWY
BOULDER CITY, NV 89005
Phone (702) 293-8971
24 HR EMERGENCY NUMBER (702) 293-8932.

Airport Operational Statistics

Aircraft operations: avg 50/month *
100% transient general aviation
* for 12-month period ending 31 January 2018

Additional Remarks

LIVESTOCK ON & INVOF ARPT.
PARALLEL TWY ROUGH INFREQUENTLY USED.

Instrument Procedures

There are no published instrument procedures at 0L9.

Some nearby airports with instrument procedures:

KLSV - Nellis Air Force Base (28 nm W)
KBVU - Boulder City Municipal Airport (29 nm SW)
KVGT - North Las Vegas Airport (36 nm W)
KLAS - Mc Carran International Airport (36 nm W)
KHND - Henderson Executive Airport (38 nm SW)
 
Loc | Ops | Rwys | IFR | FBO | Links
Com | Nav | Svcs | Stats | Notes

AirNav Hotels Sweepstakes
 
Area around 0L9 (Echo Bay Airport)
 
Road maps at: MapQuest Bing Google
 
Aerial photo
WARNING: Photo may not be current or correct
Aerial photo of 0L9 (Echo Bay Airport)
Do you have a better or more recent aerial photo of Echo Bay Airport that you would like to share? If so, please send us your photo.

 
Sectional chart

 
Airport distance calculator
Flying to Echo Bay Airport? Find the distance to fly.

From to 0L9

Sunrise and sunset
Times for 22-Apr-2018
 Local
(UTC-7)
 Zulu
(UTC)
Morning civil twilight05:2912:29
Sunrise05:5612:56
Sunset19:1702:17
Evening civil twilight19:4402:44

Current date and time
Zulu (UTC)  22-Apr-2018 18:29:22
Local (UTC-7)  22-Apr-2018 11:29:22
 
METAR
KLSV 
27nm W 
221758Z 06007KT 10SM FEW180 28/M04 A2997 RMK AO2A ALSTG DATA ESTMD SLP149 T02751045 10275 20147 $
KBVU 
29nm SW 
221815Z AUTO 06009KT 10SM CLR 27/M06 A2997 RMK AO2
KLAS 
36nm W 
221756Z VRB03KT 10SM BKN250 27/M04 A2998 RMK AO2 SLP131 T02671044 10272 20172 58004
KVGT 
36nm W 
221753Z 12003KT 10SM CLR 26/M06 A2997 RMK AO2 SLP148 T02561061 10261 20156 58005
KHND 
38nm SW 
221756Z 03008KT 10SM CLR 26/M04 A3001 RMK AO2 SLP143 T02611044 10261 20144 58004 $
TAF
KLSV 
27nm W 
221502Z 2215/2321 VRB06KT 9999 SCT250 QNH2982INS BECMG 2220/2221 18009KT 9999 SCT250 QNH2978INS BECMG 2305/2306 VRB06KT 9999 SKC QNH2980INS BECMG 2317/2318 16009KT 9999 SKC QNH2990INS TX32/2223Z TN17/2312Z
NOTAMs
Click for the latest NOTAMs
NOTAMs are issued by the DoD/FAA and will open in a separate window not controlled by AirNav.

 

 
 

Would you like to see your business listed on this page?

 If your business provides an interesting product or service to pilots, flight crews, aircraft, or users of the Echo Bay Airport, you should consider listing it here.  To start the listing process, click on the button below
 
Add a business
 

Other Pages about Echo Bay Airport

Update a link
 
Copyright © AirNav, LLC. All rights reserved. Privacy Policy  Contact